TimeIST,TemperatureF,Dew PointF,Humidity,Sea Level PressureIn,VisibilityMPH,Wind Direction,Wind SpeedMPH,Gust SpeedMPH,PrecipitationIn,Events,Conditions,WindDirDegrees,DateUTC
12:00 AM,80.6,73.4,79,29.68,2.5,WNW,8.1,-,N/A,,Haze,290,2013-08-27 18:30:00
12:30 AM,78.8,73.4,83,29.68,2.5,WNW,3.5,-,N/A,,Haze,300,2013-08-27 19:00:00
1:00 AM,78.8,73.4,83,29.68,2.5,WNW,4.6,-,N/A,,Haze,300,2013-08-27 19:30:00
2:00 AM,78.8,71.6,78,29.68,2.5,WNW,3.5,-,N/A,,Haze,290,2013-08-27 20:30:00
2:30 AM,78,71,74,29.61,2,WNW,8.9,,,,Haze,290,2013-08-27 21:00:00
3:00 AM,77.0,71.6,83,29.68,2.5,WNW,3.5,-,N/A,,Haze,300,2013-08-27 21:30:00
4:00 AM,77.0,71.6,83,29.68,2.5,WNW,5.8,-,N/A,,Haze,300,2013-08-27 22:30:00
5:30 AM,76,71,79,29.64,2,WNW,8.9,,,,Haze,290,2013-08-28 00:00:00
5:30 AM,77.0,71.6,83,29.68,2.5,WNW,4.6,-,N/A,,Haze,300,2013-08-28 00:00:00
6:00 AM,77.0,71.6,83,29.71,2.5,WNW,4.6,-,N/A,,Haze,300,2013-08-28 00:30:00
7:00 AM,77.0,71.6,83,29.74,2.5,WNW,4.6,-,N/A,,Haze,300,2013-08-28 01:30:00
8:00 AM,78.8,71.6,78,29.77,2.5,NW,4.6,-,N/A,,Haze,310,2013-08-28 02:30:00
8:30 AM,80,72,69,29.70,2,WNW,6.9,,,,Mist,290,2013-08-28 03:00:00
9:00 AM,80.6,73.4,79,29.80,2.5,WNW,5.8,-,N/A,,Mostly Cloudy,290,2013-08-28 03:30:00
11:00 AM,82.4,73.4,74,29.80,3.1,WNW,6.9,-,N/A,,Haze,300,2013-08-28 05:30:00
11:30 AM,86,73,58,29.71,2,WNW,6.9,,,,Haze,290,2013-08-28 06:00:00
12:00 PM,84.2,73.4,70,29.77,3.1,WNW,6.9,-,N/A,,Haze,300,2013-08-28 06:30:00
1:00 PM,84.2,71.6,66,29.77,3.1,West,8.1,-,N/A,,Haze,280,2013-08-28 07:30:00
2:00 PM,86.0,71.6,62,29.74,3.1,West,6.9,-,N/A,,Haze,280,2013-08-28 08:30:00
2:30 PM,87,71,51,29.66,2,West,11.5,,,,Haze,270,2013-08-28 09:00:00
3:00 PM,86.0,73.4,66,29.74,3.1,West,9.2,-,N/A,,Haze,270,2013-08-28 09:30:00
4:00 PM,86.0,71.6,62,29.71,3.1,West,8.1,-,N/A,,Haze,260,2013-08-28 10:30:00
5:00 PM,86.0,71.6,62,29.71,3.1,WNW,8.1,-,N/A,,Haze,290,2013-08-28 11:30:00
5:30 PM,86,71,51,29.63,2,WNW,17.9,,,,Haze,290,2013-08-28 12:00:00
6:00 PM,84.2,71.6,66,29.71,2.5,West,9.2,-,N/A,,Haze,280,2013-08-28 12:30:00
7:00 PM,82.4,71.6,70,29.74,2.5,WNW,5.8,-,N/A,,Haze,290,2013-08-28 13:30:00
8:00 PM,80.6,71.6,74,29.74,2.5,Variable,2.3,-,N/A,,Haze,0,2013-08-28 14:30:00
9:00 PM,78.8,71.6,78,29.77,2.5,Calm,Calm,-,N/A,,Haze,0,2013-08-28 15:30:00
10:00 PM,78.8,71.6,78,29.77,2.2,Calm,Calm,-,N/A,,Haze,0,2013-08-28 16:30:00
11:00 PM,78.8,71.6,78,29.80,2.2,Variable,2.3,-,N/A,,Haze,0,2013-08-28 17:30:00
11:30 PM,79,72,73,29.70,2,,4.5,,,,Haze,,2013-08-28 18:00:00